Vorticity
nan nan nan nan nan nan nan nan nan nan nan nan nan nan nan nan nan nan nan nan nan nan nan nan nan nan nan nan nan nan nan nan nan nan nan nan nan nan nan nan nan nan nan
nan 8 9 9 11 8 9 10 10 9 9 11 13 11 9 7 6 5 8 7 8 9 10 9 9 9 11 11 11 9 9 9 9 8 7 10 9 10 11 12 11 11 nan
nan 9 9 9 10 9 9 10 10 13 12 15 12 8 5 3 4 6 6 6 11 11 7 9 8 6 7 9 10 12 12 11 9 9 9 9 11 11 10 10 10 10 nan
nan 11 10 11 10 12 11 11 11 12 15 17 14 10 6 5 6 6 4 6 10 13 14 9 7 7 6 5 9 10 11 10 10 8 8 9 8 8 10 11 9 11 nan
nan 12 12 13 12 10 10 14 14 13 15 14 8 4 1 5 8 9 9 10 11 12 10 8 10 9 7 8 8 10 9 8 7 8 7 8 7 7 9 9 11 11 nan
nan 13 14 12 12 12 12 10 12 9 7 11 12 8 8 8 8 8 7 10 11 10 8 10 5 9 16 13 11 13 12 7 7 8 7 5 6 8 12 10 9 9 nan
nan 11 13 12 10 10 11 9 9 10 12 9 13 13 11 10 10 12 10 10 9 9 9 9 12 9 14 15 15 16 17 15 9 8 10 7 10 12 12 12 10 8 nan
nan 11 10 10 10 9 9 9 9 9 9 10 10 14 13 9 17 20 15 12 12 11 12 13 10 10 10 11 14 15 13 15 15 13 11 10 12 13 11 11 12 9 nan
nan 10 10 10 9 9 9 9 9 9 9 10 11 11 11 7 11 17 18 14 12 12 13 12 12 9 5 11 13 11 12 12 12 12 12 12 15 19 15 10 11 10 nan
nan 10 10 10 9 9 9 8 9 11 11 9 9 9 10 7 6 12 14 12 10 12 11 8 8 9 12 13 12 10 9 8 10 13 13 13 14 16 18 13 12 11 nan
nan 9 10 10 10 9 9 10 12 12 10 8 8 8 7 8 7 8 15 15 10 10 10 10 7 7 10 12 14 12 10 9 11 12 11 10 10 11 11 14 15 15 nan
nan 10 9 9 9 10 10 11 11 10 10 10 8 8 8 7 6 8 10 11 13 12 10 9 6 7 8 11 11 10 14 16 12 11 10 10 10 11 10 9 12 15 nan
nan 9 9 9 9 11 10 10 10 10 9 9 9 8 9 9 7 7 8 8 13 12 8 8 8 6 10 9 7 12 16 15 12 11 10 11 11 9 10 10 9 9 nan
nan 8 9 8 9 9 10 9 10 10 9 9 9 9 9 9 9 8 9 7 10 10 9 11 11 11 11 9 9 11 12 12 13 11 10 11 11 11 11 11 10 8 nan
nan 8 8 8 9 9 9 9 10 10 12 10 8 9 9 10 11 10 8 8 7 7 12 13 12 12 12 11 9 10 11 12 11 11 11 10 11 11 11 11 11 12 nan
nan 9 9 10 11 10 10 12 10 10 9 8 11 12 11 12 10 7 6 7 8 13 14 10 10 10 11 11 11 10 9 9 10 12 11 11 11 10 10 12 13 11 nan
nan 9 9 11 11 10 12 11 10 12 11 10 9 8 10 12 9 5 6 11 14 13 11 10 10 10 10 10 11 11 11 10 10 11 11 11 11 11 9 11 10 9 nan
nan 10 9 9 10 11 12 11 11 10 10 13 14 12 11 9 7 4 7 13 15 11 9 9 10 10 10 10 11 12 12 11 11 11 11 11 10 10 11 10 10 11 nan
nan 10 10 9 10 11 11 11 13 12 10 10 12 14 14 11 9 9 11 12 9 10 11 11 10 10 10 10 10 11 12 12 12 11 10 10 10 10 11 9 10 11 nan
nan 11 9 10 10 10 9 11 13 11 10 10 10 11 11 11 10 13 12 10 10 10 10 11 11 10 10 11 10 9 10 12 12 12 12 11 10 12 11 10 10 9 nan
nan 11 11 12 11 10 10 10 11 10 9 9 11 14 12 7 9 9 9 11 12 12 12 12 11 10 11 11 10 9 10 10 12 13 12 12 10 10 10 11 11 11 nan
nan 10 11 11 11 11 10 11 12 10 9 10 11 11 13 11 10 10 10 11 13 14 13 12 12 11 10 12 11 11 10 11 12 12 11 11 10 11 11 11 10 10 nan
nan 10 9 9 11 13 13 11 10 9 10 11 12 11 11 12 12 10 9 10 11 12 13 11 10 11 11 11 12 12 11 12 12 13 12 12 11 11 11 10 10 11 nan
nan 10 9 9 10 12 13 11 10 10 10 11 14 13 12 13 12 10 10 10 11 11 12 11 10 11 12 10 11 12 13 13 14 14 12 11 11 10 10 11 12 11 nan
nan 10 10 11 10 9 10 11 10 11 11 13 13 12 12 12 12 11 11 11 11 11 10 11 11 11 12 11 9 12 16 17 15 11 12 13 12 10 9 10 11 12 nan
nan nan nan nan nan nan nan nan nan nan nan nan nan nan nan nan nan nan nan nan nan nan nan nan nan nan nan nan nan nan nan nan nan nan nan nan nan nan nan nan nan nan nan
CAPE
19 65 387 654 577 711 875 996 1121 1053 955 912 613 83 0 0 0 258 427 694 700 811 899 774 1076 726 798 343 243 446 301 53 95 383 65 265 489 629 593 744 530 580 471
65 148 334 546 1193 1329 1295 1290 1272 1230 1073 1079 213 2 70 103 12 0 0 6 9 79 202 149 202 502 391 635 550 573 422 97 93 200 203 400 630 399 490 502 483 447 286
471 544 700 988 967 1331 1591 1649 1596 1586 1549 839 25 68 23 6 5 1 0 0 0 19 44 50 81 95 90 270 619 816 478 504 88 111 288 171 263 247 320 365 342 334 253
768 773 952 1312 1436 1547 1789 1931 1869 1174 585 374 70 0 21 72 99 86 6 0 0 3 1 35 59 73 44 146 214 538 419 297 55 78 98 94 65 30 83 192 174 177 196
807 1117 1397 1671 1734 1711 1664 1164 587 267 306 489 92 33 93 164 182 78 0 1 0 0 0 0 3 40 46 43 116 343 307 314 221 227 132 4 90 60 66 121 71 165 71
1262 1432 1572 1709 1523 1192 987 421 195 225 147 318 489 126 77 131 96 63 85 118 0 0 0 0 4 29 12 55 202 130 132 83 118 145 199 168 132 66 100 100 154 158 61
898 1009 1112 1018 899 705 616 792 805 658 555 287 148 259 120 116 58 64 9 20 0 0 3 41 33 202 1 23 84 134 34 0 0 247 262 242 350 383 97 25 70 94 129
790 787 760 921 959 774 707 626 558 406 320 309 208 303 297 66 1 1 1 7 33 49 23 16 7 3 2 2 36 127 160 126 210 135 178 297 321 226 16 50 102 176 3
818 950 981 911 744 571 476 402 270 282 199 102 30 6 1 2 0 0 14 73 72 1 0 1 1 2 0 0 1 2 33 73 82 43 28 29 30 24 44 76 89 30 6
692 618 525 457 494 544 564 548 374 174 106 0 0 0 1 1 0 0 0 0 0 17 31 1 1 1 0 1 14 32 21 91 113 124 55 26 1 34 35 182 296 144 69
509 581 484 499 549 480 501 383 210 16 32 3 0 0 0 1 1 1 1 2 0 84 72 39 6 0 0 0 0 2 17 2 92 95 22 4 4 3 4 23 13 24 77
606 608 660 665 511 259 192 63 242 2 10 4 0 0 0 0 0 0 0 0 0 1 2 5 3 0 0 1 0 0 0 27 87 57 24 6 4 4 3 2 2 4 3
617 638 187 70 191 215 153 31 0 1 0 0 19 0 0 0 0 0 0 0 0 1 2 1 0 0 0 0 0 0 0 5 74 6 8 4 4 3 3 2 2 6 2
557 522 478 125 56 174 0 0 0 0 0 0 0 0 0 0 0 1 0 1 1 2 1 0 0 0 1 1 0 0 0 2 5 6 11 7 2 1 1 1 2 2 1
468 484 524 571 519 211 0 10 14 0 0 0 0 0 0 0 0 0 0 0 1 1 0 1 6 23 40 10 0 0 0 0 1 20 11 2 1 1 0 0 0 1 4
647 651 614 663 665 467 230 114 0 0 1 1 1 0 0 0 0 1 1 1 1 1 0 0 15 53 142 163 11 0 0 0 0 2 1 1 1 0 0 0 0 1 1
911 920 601 58 40 67 199 323 377 0 1 1 0 0 1 0 0 0 1 1 1 0 0 0 5 59 79 86 80 4 0 0 0 2 1 1 0 0 0 0 0 0 0
798 577 575 345 210 198 244 167 355 199 8 0 0 0 0 0 1 1 0 1 0 0 0 0 0 10 54 87 67 48 3 0 0 4 1 1 0 0 0 0 0 0 0
823 714 546 469 186 20 30 4 10 167 0 0 0 0 1 0 0 1 0 0 0 0 2 3 0 0 22 48 2 0 3 0 0 0 0 0 0 0 0 0 0 0 0
608 296 133 255 160 0 0 2 81 3 0 0 33 2 0 0 0 0 0 0 0 0 0 22 1 0 0 24 2 0 0 2 0 0 0 0 0 0 0 0 0 0 0
156 207 51 153 61 0 0 0 75 0 0 0 0 2 0 1 14 0 0 0 0 0 0 28 25 10 0 13 1 0 0 1 3 1 0 0 0 0 0 0 0 0 0
291 188 0 0 0 0 0 11 0 0 0 0 0 0 0 0 7 0 0 38 94 19 18 39 57 5 4 14 11 7 6 2 0 0 0 0 0 0 0 0 0 0 0
321 7 0 0 0 0 0 0 0 0 0 0 0 0 0 0 0 0 8 181 161 176 76 23 13 10 4 4 2 0 28 18 12 0 0 0 0 0 0 0 0 0 7
19 0 0 0 0 0 0 0 0 0 0 0 0 0 0 0 0 0 0 48 70 45 31 55 10 3 0 10 0 0 18 31 11 0 0 0 0 0 0 0 0 1 3
0 0 0 0 0 0 0 0 0 0 0 0 0 0 0 0 0 0 14 24 92 151 73 44 31 0 0 0 0 0 0 2 3 0 0 0 0 0 0 0 2 2 14
0 0 0 0 0 0 0 0 0 0 0 0 0 0 0 0 0 0 0 16 25 65 43 17 22 17 0 0 0 0 0 2 0 0 0 0 0 0 0 1 1 6 9